SCP
2 2 2 2 2 2 2 2 1 1 1 1 1 1 1 1 1 1 1 0 0 0 0 0 0 0 0 0 0 0 0 0 0 0 0 0 0 0 0 0 0 0 0
2 2 2 2 2 2 2 2 1 1 1 1 1 1 1 1 1 1 1 0 0 0 0 0 0 0 0 0 0 0 0 0 0 0 0 0 0 0 0 0 0 0 0
2 2 2 2 2 2 2 2 2 2 1 1 1 1 1 1 1 1 1 0 0 0 0 0 0 0 0 0 0 0 0 0 0 0 0 0 0 0 0 0 0 0 0
2 2 2 2 2 2 2 2 2 2 2 1 1 1 1 1 1 1 0 0 0 0 0 0 0 0 0 0 0 0 0 0 0 0 0 0 0 0 0 0 0 0 0
2 2 2 2 2 2 2 2 2 2 2 1 1 1 1 1 1 0 0 0 0 0 0 0 0 0 0 0 0 0 0 0 0 0 0 0 0 0 0 0 0 0 0
2 2 2 2 2 2 2 2 2 2 2 1 1 1 1 1 1 0 0 0 0 0 0 0 0 0 0 0 0 0 0 0 0 0 0 0 0 0 0 0 0 0 0
2 1 1 1 2 2 2 2 2 2 2 1 1 1 1 1 0 0 0 0 0 0 0 0 0 0 0 0 0 0 0 0 0 0 0 0 0 0 0 0 0 0 0
1 1 1 1 1 1 2 2 2 2 2 1 1 1 1 1 0 0 0 0 0 0 0 0 0 0 0 0 0 0 0 0 0 0 0 0 0 0 0 0 0 0 0
1 1 1 1 1 1 1 2 2 2 1 1 1 1 1 0 0 0 0 0 0 0 0 0 0 0 0 0 0 0 0 0 0 0 0 0 0 0 0 0 0 0 0
1 1 1 1 1 1 1 1 1 1 1 1 1 1 0 0 0 0 0 0 0 0 0 0 0 0 0 0 0 0 0 0 0 0 0 0 0 0 0 0 0 0 0
1 1 1 1 1 1 1 1 1 1 1 1 0 0 0 0 0 0 0 0 0 0 0 0 0 0 0 0 0 0 0 0 0 0 0 0 0 0 0 0 0 0 0
1 1 1 1 1 1 1 1 1 1 1 1 0 0 0 0 0 0 0 0 0 0 0 0 0 0 0 0 0 0 0 0 0 0 0 0 0 0 0 0 0 0 0
1 1 1 1 1 1 1 1 1 1 0 0 0 0 0 0 0 0 0 0 0 0 0 0 0 0 0 0 0 -0 -0 -0 -0 -0 -0 -0 0 0 0 0 0 0 0
1 1 1 2 2 2 1 1 1 1 0 0 0 0 0 0 0 0 0 0 0 0 0 0 0 0 0 0 0 -0 -0 -0 -0 -0 -0 -0 -0 0 0 0 0 0 0
1 2 2 2 2 2 1 1 1 1 1 0 0 0 0 0 0 0 0 0 0 0 0 0 0 0 0 0 0 0 -0 -0 -0 -0 -0 -0 0 0 0 0 0 0 0
2 2 2 2 2 2 1 1 1 1 1 1 0 0 0 0 0 0 0 0 0 0 0 0 0 0 0 0 0 0 0 -0 -0 -0 -0 0 0 0 0 0 0 0 0
2 2 2 2 2 1 1 1 1 1 1 0 0 0 0 0 0 0 0 0 0 0 0 0 0 0 0 0 0 0 0 0 0 0 0 0 0 0 0 0 0 0 0
2 2 2 2 2 1 1 1 1 1 1 0 0 0 0 0 0 0 0 0 0 0 0 0 0 0 0 0 0 0 0 0 0 0 0 0 0 0 0 0 0 0 0
2 2 2 2 2 1 1 1 1 0 0 0 0 0 0 0 0 0 0 0 0 0 0 0 0 0 0 0 0 0 0 0 0 0 0 0 0 0 0 0 0 0 0
2 2 2 2 2 2 1 1 1 0 0 0 0 0 0 0 0 0 0 0 0 0 0 0 0 0 0 0 0 0 0 0 0 0 0 0 0 0 0 0 0 0 0
2 2 2 2 2 2 1 1 1 1 0 0 0 0 0 0 0 0 0 0 0 0 0 0 0 0 0 0 0 0 0 0 0 0 0 0 -0 -0 0 -0 0 0 0
2 3 3 3 2 2 1 1 1 1 1 0 0 0 0 0 0 0 0 0 0 0 0 0 0 0 0 0 0 0 0 0 0 -0 -0 -0 -0 -0 -0 -0 -0 0 0
2 2 3 3 2 2 1 1 1 1 1 0 0 0 0 0 0 0 0 0 0 0 0 0 0 0 0 0 0 0 0 0 -0 -0 -0 -0 -0 0 0 -0 -0 -0 0
2 2 2 2 2 2 1 1 1 1 1 1 0 0 0 0 0 0 0 0 0 0 0 0 0 0 0 0 0 -0 -0 -0 -0 -0 0 0 0 0 0 0 0 0 0
2 2 2 2 2 1 1 1 1 1 1 1 1 0 0 0 0 0 0 0 0 0 0 0 0 0 0 0 0 -0 -0 -0 -0 -0 0 0 0 0 0 0 0 0 0
2 2 1 1 1 1 1 1 1 1 1 1 0 0 0 0 0 0 0 0 0 0 0 0 0 0 0 0 -0 -0 -0 -0 -0 0 0 0 0 0 0 0 0 0 0
Wind_Speed
11 12 12 12 12 10 10 9 9 8 6 5 5 4 4 3 2 3 5 6 5 5 4 2 3 3 2 3 3 2 3 2 2 1 1 1 2 3 3 3 2 3 5
11 12 12 12 12 11 11 10 9 9 7 5 4 3 3 3 3 3 4 6 5 5 5 3 3 3 2 3 3 2 1 2 2 2 1 1 1 2 4 3 4 4 3
13 13 12 12 12 12 11 10 9 9 8 7 5 4 3 2 3 3 4 5 5 6 4 5 4 3 3 3 3 3 3 3 2 2 2 1 1 1 2 4 4 4 3
12 13 12 12 12 11 11 9 9 8 8 7 7 7 5 5 5 4 4 5 5 5 5 5 4 4 3 3 4 4 3 3 3 2 2 2 2 1 1 1 2 3 3
11 12 11 10 10 10 10 10 9 8 8 7 7 6 5 4 3 3 5 5 5 5 5 4 4 3 3 4 4 3 4 3 3 3 3 3 2 3 2 2 2 1 2
10 10 10 10 9 9 9 10 9 8 8 8 7 6 6 5 4 4 4 4 4 4 5 5 4 4 4 4 3 3 4 3 3 3 2 2 2 2 3 3 3 2 2
10 10 10 10 9 10 10 10 10 9 8 7 7 6 6 5 5 4 4 4 3 3 4 5 4 4 4 4 4 4 4 4 4 4 3 2 3 2 2 2 2 2 2
10 10 9 9 8 9 9 10 9 8 8 7 6 5 5 4 3 4 3 3 3 3 4 4 4 5 4 5 4 3 4 3 4 5 4 3 2 2 2 2 2 2 2
10 10 9 8 8 8 8 9 9 8 7 7 5 4 4 3 3 2 3 2 2 2 3 4 4 4 4 4 4 3 4 3 4 4 4 3 3 2 2 2 2 3 3
10 10 9 9 8 8 7 8 8 7 6 6 5 4 4 4 3 2 3 2 2 1 2 2 3 3 3 4 4 4 3 3 3 3 3 3 2 2 1 1 2 2 3
10 9 8 9 9 9 9 8 7 6 6 5 4 3 3 3 3 3 2 2 2 2 2 2 2 2 3 3 3 4 4 4 3 3 2 2 1 1 1 1 1 1 1
10 10 9 9 9 9 9 8 7 7 6 5 4 3 2 3 2 2 1 1 1 1 1 1 1 2 2 2 2 3 3 3 3 3 2 2 2 2 2 1 1 1 1
10 10 9 8 8 8 8 8 7 7 7 6 5 4 3 3 2 2 2 1 1 1 1 1 1 1 0 0 1 2 1 2 2 2 2 2 2 2 2 1 1 1 1
10 9 8 7 7 7 7 7 7 6 6 6 5 4 3 2 2 2 2 2 1 1 1 1 1 1 1 1 0 1 1 1 1 1 1 1 1 2 2 2 1 1 1
10 9 8 7 6 6 6 6 6 6 6 5 5 4 3 3 2 2 2 2 2 2 2 2 2 2 1 1 1 1 1 2 2 1 1 1 1 2 1 1 1 1 2
10 9 9 9 7 7 7 6 6 6 6 5 5 4 4 3 3 3 3 3 3 3 3 2 2 2 2 3 3 2 2 2 2 2 2 2 3 4 4 4 5 3 2
9 9 9 8 7 7 6 7 7 6 6 5 5 5 4 4 4 3 4 4 3 3 3 3 3 3 4 5 4 4 3 3 3 2 2 2 3 3 3 4 6 6 6
9 9 9 9 8 8 7 7 7 7 6 6 5 5 5 4 4 4 4 4 3 3 3 3 3 3 4 5 5 5 4 3 3 3 2 3 3 2 3 5 5 5 5
8 9 10 10 9 9 8 7 7 7 6 5 5 5 5 4 4 4 4 4 3 3 3 3 3 3 3 3 3 3 3 3 3 3 3 3 3 3 4 5 5 5 5
8 9 10 10 9 9 9 8 7 6 5 5 5 5 4 4 4 4 4 3 3 3 3 3 3 3 2 3 2 2 3 3 3 3 3 5 4 4 4 4 5 5 4
8 9 9 9 9 8 7 7 6 6 5 5 5 5 4 4 4 4 3 3 3 3 3 3 3 3 3 4 3 2 1 2 3 3 3 3 6 5 4 3 3 4 4
8 8 8 8 7 7 7 6 5 5 5 5 5 5 4 3 4 3 3 3 3 3 3 2 3 3 3 4 4 4 3 2 3 3 3 3 5 5 5 4 5 6 4
7 7 8 9 7 6 6 6 5 5 5 5 5 4 4 3 3 3 3 2 1 1 2 2 2 3 3 3 6 6 5 4 3 4 6 6 6 5 4 6 6 4 3
7 6 7 7 7 5 5 6 6 6 6 5 4 4 4 3 3 2 2 1 1 1 1 1 2 2 3 3 3 3 3 5 5 5 6 6 5 3 4 4 3 2 2
5 6 6 6 6 6 6 6 6 6 5 5 4 4 3 4 4 4 4 3 4 3 1 1 1 1 2 1 1 1 2 3 3 4 3 3 3 3 3 3 2 2 2
6 6 6 6 6 6 6 5 5 5 5 4 3 3 3 3 3 4 5 10 7 7 7 6 4 3 4 3 3 4 4 5 5 3 3 3 3 3 3 3 3 3 2
Wind_Direction
160 154 156 160 161 161 165 170 175 170 170 175 180 188 181 177 182 172 163 175 188 181 191 189 167 195 179 183 190 193 199 213 212 217 209 228 213 199 193 189 185 188 188
158 154 158 165 169 170 172 174 178 173 178 179 176 181 178 183 189 181 173 183 185 180 185 187 192 190 187 191 203 201 213 227 208 198 183 237 250 242 219 189 189 200 194
162 160 167 172 176 177 179 181 180 175 182 175 177 182 173 188 185 181 184 191 183 189 195 182 200 194 194 190 201 202 213 236 244 214 192 196 206 259 250 214 196 184 190
160 163 170 175 179 179 179 176 174 176 181 179 185 186 187 191 193 187 185 189 190 196 196 188 195 200 216 194 202 201 210 218 240 251 229 214 197 184 271 285 209 178 194
157 162 170 173 175 176 176 173 171 178 182 186 186 191 197 199 193 191 182 186 188 194 201 193 192 201 216 216 222 196 208 219 229 238 229 221 224 208 202 230 251 223 202
146 150 162 162 168 173 172 169 170 176 179 186 186 192 198 195 201 200 186 191 187 190 199 197 199 209 219 221 218 215 215 231 246 254 254 234 221 221 211 211 216 221 232
142 149 157 162 168 170 170 168 168 174 178 186 189 193 199 197 206 212 201 196 191 192 198 199 195 206 215 217 210 214 225 222 236 245 256 256 247 232 222 203 216 221 230
146 149 155 159 164 167 167 165 165 170 175 182 190 194 197 200 210 214 213 207 202 194 192 197 200 203 210 220 210 211 221 222 229 238 240 250 260 249 222 209 208 224 231
141 144 149 152 157 162 160 159 159 163 170 175 174 187 193 201 214 210 213 221 220 208 195 199 204 207 213 222 211 218 224 215 222 235 235 241 252 256 245 226 209 206 219
143 143 143 147 148 149 147 146 149 153 158 160 169 175 179 185 196 204 208 209 212 209 198 196 204 207 211 216 213 219 224 219 225 231 237 242 253 263 256 246 249 218 202
147 142 141 138 136 139 141 140 144 149 153 155 164 172 174 180 182 188 200 204 206 202 205 203 201 204 210 213 212 223 219 217 225 228 214 217 237 271 271 245 235 229 184
142 140 142 139 141 143 142 144 153 156 158 159 164 168 164 165 172 178 182 184 182 191 185 189 194 209 215 216 214 227 220 211 221 228 221 223 219 228 252 249 240 226 210
141 142 146 145 143 141 143 147 156 152 152 154 154 151 154 152 157 157 132 117 113 110 115 141 178 203 208 236 226 219 215 216 221 228 226 229 222 239 242 225 225 227 212
144 146 140 135 135 137 139 148 152 146 147 141 140 140 147 145 138 130 124 132 136 127 111 96 72 55 28 360 313 184 176 172 165 197 221 240 217 218 231 225 218 206 180
149 147 143 139 137 137 141 144 138 134 132 135 141 142 144 136 138 134 130 131 128 118 94 84 70 51 41 13 12 103 130 116 93 74 63 46 85 90 124 189 185 178 159
157 154 153 149 148 149 150 144 137 136 135 138 133 131 130 129 126 122 119 106 95 89 87 83 79 64 38 32 61 92 91 93 98 88 73 74 77 90 93 90 83 92 143
160 161 158 154 151 150 145 143 140 136 136 130 126 127 125 119 114 118 109 101 90 81 76 78 80 74 50 57 69 82 94 84 77 73 73 78 80 91 109 98 89 75 75
159 157 153 149 146 142 137 135 137 135 133 130 131 127 123 122 118 110 101 95 89 85 80 74 76 78 61 68 87 90 99 87 77 73 83 85 75 65 102 104 96 79 59
142 144 148 147 145 142 141 141 140 139 141 138 131 127 129 127 119 110 104 102 101 98 92 89 86 82 66 60 93 119 120 109 97 85 71 78 79 67 104 119 112 103 89
126 137 140 139 138 138 140 144 145 144 144 136 126 123 125 123 120 119 116 118 120 116 110 98 93 95 83 62 74 133 142 126 114 101 89 72 68 68 87 116 121 119 111
119 127 131 132 131 132 137 144 141 141 135 127 125 122 120 119 123 123 127 133 129 124 124 114 106 96 83 80 70 77 134 125 117 108 97 80 76 73 73 92 107 123 123
116 124 123 121 123 131 137 136 128 123 122 125 126 126 128 132 125 123 130 136 143 143 135 127 116 103 95 86 77 79 88 91 103 105 105 103 103 89 84 87 97 109 109
112 115 121 120 119 126 131 132 124 123 123 121 117 116 118 106 113 127 132 141 164 163 154 152 138 123 118 109 94 87 85 92 97 94 106 119 121 106 94 95 105 115 118
115 115 119 127 125 124 123 123 122 120 123 127 125 122 117 113 102 89 84 90 53 74 95 88 102 119 120 114 119 123 118 116 116 116 115 116 108 97 102 114 118 107 98
103 112 116 118 122 116 109 110 116 125 131 133 132 133 130 120 98 71 40 48 54 39 40 54 66 93 107 75 67 144 151 143 125 133 144 150 143 129 120 116 103 100 106
102 106 110 111 113 113 111 112 117 129 134 136 136 136 129 124 121 111 79 48 57 62 61 62 78 77 88 97 93 94 102 117 134 139 148 144 141 139 139 141 131 119 110